Regional Weather Roundup
Issued by NWS

Home | Current Version | Previous Version | Text Only | Print | Product List | Glossary On
Versions: 1 2 3 4 5 6 7 8 9 10 11 12 13 14 15 16 17 18 19 20 21 22 23 24 25 26 27 28 29 30 31 32 33 34 35 36 37 38 39 40 41 42 43 44 45 46 47 48 49 50
000
ASUS43 KFSD 040202
RWRSD

WEATHER ROUNDUP FOR SOUTH DAKOTA
NATIONAL WEATHER SERVICE SIOUX FALLS SD
900 PM CDT FRI JUL 03 2015

NOTE: "FAIR" INDICATES FEW OR NO CLOUDS BELOW 12,000 FEET WITH NO
SIGNIFICANT WEATHER AND/OR OBSTRUCTIONS TO VISIBILITY.


SDZ001>005-009-010-012>017-040300-
NORTHWEST AND NORTH CENTRAL SOUTH DAKOTA

CITY           SKY/WX    TMP DP  RH WIND       PRES   REMARKS
BUFFALO          N/A     76  59  55 SE12      29.85F
FAITH            N/A     73  61  65 S7        29.92F
MOBRIDGE       PTCLDY    77  72  84 E6        29.89F HAZE
$$

SDZ012>016-024>037-041>051-057-063-072>074-040300-
SOUTHWEST AND SOUTH CENTRAL SOUTH DAKOTA

CITY           SKY/WX    TMP DP  RH WIND       PRES   REMARKS
RAPID CTY ARPT CLEAR     72  62  71 SE8       29.95S
PIERRE         CLEAR     72  65  78 SE7       29.90F HAZE
CUSTER         CLEAR     67  55  65 SE7       30.09S
ELLSWORTH AFB  CLEAR     74  62  64 SE8       29.95S
PHILIP         CLEAR     74  67  78 E5        29.92S HAZE
PINE RIDGE     CLEAR     74  61  63 E6        29.97S
WINNER         FAIR      77  61  57 SE8       29.93S
$$

SDZ004>011-016>023-039-040-040300-
NORTHEAST SOUTH DAKOTA

CITY           SKY/WX    TMP DP  RH WIND       PRES   REMARKS
ABERDEEN       CLOUDY    75  68  78 CALM      29.90F HAZE
WATERTOWN      MOCLDY    74  64  71 CALM      29.93S HAZE
BROOKINGS      PTCLDY    75  64  69 SW5       29.95S
SISSETON         N/A     76  66  71 CALM      29.90S
$$

SDZ017-020-022-023-036>040-048>070-040300-
SOUTHEAST SOUTH DAKOTA

CITY           SKY/WX    TMP DP  RH WIND       PRES   REMARKS
SIOUX FALLS    CLOUDY    74  63  68 CALM      29.94F
HURON          PTCLDY    76  67  73 S6        29.91S
MITCHELL       CLEAR     74  67  78 SE6       29.93F
YANKTON        CLEAR     73  64  73 CALM      29.93S
$$

ABBREVIATIONS USED IN REMARKS
   TC - TEMPERATURE IN CELSIUS
  WCI - WIND CHILL INDEX
   HX - HEAT INDEX
  VSB - VISIBILITY




USA.gov is the U.S. government's official web portal to all federal, state and local government web resources and services.